sat.trackr.live / text

‹ back to catalog

STARLINK-37072

NORAD 68153 · 2026-049M

PAYLOAD ACTIVE UNKNOWN

§ Identity

Operator
Country
US
Launch date
2026-03-13
Launch site
AFWTR
Launch vehicle
Mass (kg)
RCS (m²)

Purposes: comms

External: N2YO · Heavens-Above · Gunter

§ Orbital elements

Epoch: 2026-09-19T23:45:07.202016Z

Period
93.91 min
Inclination
97.2861°
Eccentricity
0.0001909
Mean motion
15.33450441 rev/d
Perigee alt
464.2 km
Apogee alt
466.8 km
Semi-major
6,843.7 km
B*
4.3626e-4
RAAN
282.9656°
Arg perigee
88.0907°
Mean anomaly
272.0554°
Rev number
2,942

§ Raw data

STARLINK-370721 68153U 26049M   26262.98966669  .00014038  00000+0  43626-3 0  99902 68153  97.2861 282.9656 0001909  88.0907 272.0554 15.33450441 29429

JSON: /api/v1/satellites/68153 · /tle

For live sub-satellite position, see the globe view (requires WebGL).

§ Visibility from observer

Set your observer location to see the next 7 days of passes ≥ 10°. The values pass through the URL so the page stays shareable.

No JS? Fill the form by hand. The geolocation button needs JavaScript.